アトラス彗星

C/2017 K4 ( ATLAS )

English version
Home page
Updated on February 13, 2018

---------------------------------------------------------------------

・ プロフィール

発見日 2017年5月26日
発見光度 17.0等
発見者 Asteroid Terrestrial-impact Last Alert System (ATLAS) Team

・ 写真集

・ 軌道要素

Epoch 2018 Jan. 2.0 TT = JDT 2458120.5
T 2018 Jan. 8.03124 TT                                  MPCW
q   2.6480852            (2000.0)            P               Q
n   0.00661577     Peri.   15.10799     +0.68513362     +0.68370728
a  28.1027693      Node   298.89801     -0.69453226     +0.50917809
e   0.9057714      Incl.   16.67886     -0.21958337     +0.52276383
P 149
From 235 observations 2017 May 26-Nov. 12, mean residual 0".4.

・ 星図

・ 光度変化

        m1 = 9.0 + 5 logΔ + 10.0 log r

---------------------------------------------------------------------

軌道要素はM.P.E.C. 2018-B155に掲載されたものです。
星図はステラナビゲータ Ver.10 (アストロアーツ) で作成したものです。
光度グラフはComet for Windowsで作成したものです。

---------------------------------------------------------------------

Copyright(C) Seiichi Yoshida (comet@aerith.net). All rights reserved.